Regional Weather Roundup
Issued by NWS Charleston, SC

Current Version | Previous Version | Graphics & Text | Print | Product List | Glossary On
Versions: 1 2 3 4 5 6 7 8 9 10 11 12 13 14 15 16 17 18 19 20 21 22 23 24 25 26 27 28 29 30 31 32 33 34 35 36 37 38 39 40 41 42 43 44 45 46 47 48 49 50
000
ASUS42 KCHS 051612
RWRCHS

REGIONAL WEATHER ROUNDUP
NATIONAL WEATHER SERVICE CHARLESTON SC
1200 PM EDT SUN JUL 05 2015

NOTE: "FAIR" INDICATES FEW OR NO CLOUDS BELOW 12,000 FEET WITH NO
SIGNIFICANT WEATHER AND/OR OBSTRUCTIONS TO VISIBILITY.

NOT ALL STATIONS ARE QUALITY CONTROLLED BY THE NATIONAL
WEATHER SERVICE. USE DATA WITH CAUTION...ESPECIALLY
DEWPOINT OBSERVATIONS.

SCZ027-030-031-034>040-042>050-051700-
...SOUTHEAST SOUTH CAROLINA...

CITY           SKY/WX    TMP DP  RH WIND       PRES   REMARKS
N CHARLESTON   MOSUNNY   85  72  65 SW7       30.15F HX  91
WATERFRONT PAR   N/A     84  72  67 SW7       30.14R
MOUNT PLEASANT FAIR      88  72  58 SW10      30.16S HX  94
JOHNS ISLAND   FAIR      86  75  70 S8        30.16S HX  95
PINOPOLIS      NOT AVBL
MONCKS CORNER  FAIR      86  70  58 SW6       30.15S HX  90
SUMMERVILLE    FAIR      86  72  62 SW5       30.16F HX  92
BEAUFORT MCAS  SUNNY     87  73  62 SW9       30.15F HX  94
BEAUFORT ARPT  FAIR      86  75  70 SW7       30.15F HX  95
HILTON HEAD IS MOSUNNY   86  77  74 S5        30.17S HX  97
WALTERBORO     MOSUNNY   84  72  65 SW7       30.15F
ALLENDALE      FAIR      86  72  62 VRB6      30.14S HX  92

...SOUTHERN MIDLANDS AND PEE DEE...

CITY           SKY/WX    TMP DP  RH WIND       PRES   REMARKS
GEORGETOWN     NOT AVBL
KINGSTREE      NOT AVBL
ORANGEBURG     SUNNY     86  67  52 SW9       30.14F
BARNWELL       FAIR      88  70  55 W9        30.15S HX  92
AIKEN          NOT AVBL
MANNING        FAIR      86  64  48 W3        30.14F
COLUMBIA       MOSUNNY   86  67  52 W9        30.12F
SUMTER         MOSUNNY   85  68  55 W8        30.12F
FLORENCE       MOSUNNY   87  71  58 SW10      30.13S HX  93
MYRTLE BEACH   NOT AVBL
N MYRTLE BEACH SUNNY     83  72  69 S9        30.15S

$$

GAZ063-065-086>088-099>101-113>116-118-119-134>141-150-051700-
...SOUTHEAST GEORGIA...

CITY           SKY/WX    TMP DP  RH WIND       PRES   REMARKS
SAVANNAH ARPT  MOSUNNY   88  72  58 VRB7      30.15F HX  94
HUNTER AAF     MOSUNNY   87  75  66 SW8       30.13F HX  97
FORT STEWART   PTSUNNY   87  74  65 VRB6      30.13F HX  95
STATESBORO     NOT AVBL
SYLVANIA       SUNNY     87  74  65 W5        30.16S HX  94
CLAXTON        FAIR      86  73  66 SW3       30.15S HX  93

...CSRA...CENTRAL AND FAR SOUTHEAST GEORGIA...

CITY           SKY/WX    TMP DP  RH WIND       PRES   REMARKS
THOMSON        PTSUNNY   85  73  67 SW8       30.18S HX  92
AUGUSTA-BUSH   SUNNY     84  69  60 SW5       30.13F
AUGUSTA-DANIEL SUNNY     84  68  58 S9        30.14F
SWAINSBORO     FAIR      86  72  62 W9        30.16S HX  92
VIDALIA        MOSUNNY   86  70  58 SW8       30.16S HAZE    HX  90
EASTMAN        FAIR      84  71  65 NW5       30.18F
HAZLEHURST     FAIR      87  73  62 NW3       30.15S HX  94
ALMA           MOSUNNY   87  72  60 S9        30.15F HX  93
WAYCROSS       MOSUNNY   91  77  65 S7        30.15F HX 104
JESUP          PTSUNNY   90  77  66 CALM      30.15F HX 102
BAXLEY         PTSUNNY   88  73  62 W5        30.15F HX  96
BRUNSWICK      MOSUNNY   88  73  62 S7        30.16F HX  96
SAINT SIMONS   SUNNY     86  73  65 MISG      30.16F HX  93

$$

SCZ027-028-034-036>038-045-046-048>050-GAZ119-141-051700-
...LAKE AND SUPPLEMENTAL COASTAL OBSERVATIONS...

STATION/POSITION TIME  TEMP    WIND        PRES    WAVE   SWELL
                       AIR SEA DIR/SP/G            HT/PER HT/PER/DIR
                 (UTC) (F)     (DEG/KT/KT) (MB)    (FT/S) (FT/S/D)
UPR LAKE MARION  NOT AVBL
WINYAH BAY       NOT AVBL
LAKE MURRAY      1500   79     220/  6/ 10 1019.6F
ACE BASIN NERRS  NOT AVBL
FORT PULASKI     1500   84 83  210/  7/  9 1021.8F
SAPELO ISLAND    1500   85     220/  5     1022.0S

$$

ANZ835-935-AMZ111-154-330-350-352-354-370-450-454-472-051700-
...C-MAN AND BUOY OBSERVATIONS...

STATION/POSITION TIME  TEMP    WIND        PRES    WAVE   SWELL
                       AIR SEA DIR/SP/G            HT/PER HT/PER/DIR
                 (UTC) (F)     (DEG/KT/KT) (MB)    (FT/S) (FT/S/D)
BUOY 41004       1550   81 82  220/ 10/ 10 1020.8F   3/ 9   2/ 9
BUOY 41008       1550   78 79  210/  8/ 10 1021.7F   2/ 9   2/120/ 9
FOLLY BEACH CMAN 1500   81     210/ 11/ 12 1021.4S
CAPERS NEARSHORE 1508   81     230/ 10/ 14 1021.5R
FRIPP NEARSHORE  1500   82     240/  8/ 10 1021.1S


STATION/POSITION TIME  TEMP    WIND        PRES    WAVE   SWELL
                       AIR SEA DIR/SP/G            HT/PER HT/PER/DIR
                 (UTC) (F)     (DEG/KT/KT) (MB)    (FT/S) (FT/S/D)
5E ST. MARYS GA  1521      79                N/A     2/ 8
FRYING PAN BUOY  1550   80 79  240/  8/ 10 1021.6S   3/ 5   2/180/ 5
BUOY 41025       1550   80 81  240/ 16/ 17 1020.8R   4/ 6   2/140/ 9
CAPE LOOKOUT NC  1500   81     220/  8/ 11 1020.8S
BUOY 41002       1550   79 80  220/ 12/ 16 1024.2R   4/ 9   3/160/ 9
BUOY 41010       1520   83 84  160/  8/ 10 1022.8F
ST AUGUSTINE FL  1600   76 71  130/  8/  9 1022.5F


$$



USA.gov is the U.S. government's official web portal to all federal, state and local government web resources and services.